TimeCST,TemperatureF,Dew PointF,Humidity,Sea Level PressureIn,VisibilityMPH,Wind Direction,Wind SpeedMPH,Gust SpeedMPH,PrecipitationIn,Events,Conditions,WindDirDegrees,DateUTC
12:53 AM,28.0,21.0,75,30.13,10.0,SE,9.2,-,N/A,,Clear,130,2013-03-07 06:53:00
1:53 AM,26.1,21.0,81,30.12,10.0,SE,10.4,-,N/A,,Clear,130,2013-03-07 07:53:00
2:53 AM,26.1,21.0,81,30.12,10.0,SE,10.4,-,N/A,,Clear,130,2013-03-07 08:53:00
3:53 AM,25.0,21.0,85,30.11,10.0,SE,10.4,-,N/A,,Clear,140,2013-03-07 09:53:00
4:53 AM,24.1,21.0,88,30.11,10.0,SE,10.4,-,N/A,,Clear,140,2013-03-07 10:53:00
5:53 AM,24.1,19.9,84,30.13,8.0,SE,11.5,-,N/A,,Clear,140,2013-03-07 11:53:00
6:53 AM,23.0,19.4,86,30.06,6.0,SE,8.1,-,N/A,,Clear,130,2013-03-07 12:53:00
7:42 AM,23.0,19.4,86,30.07,4.0,SE,10.4,-,N/A,,Partly Cloudy,140,2013-03-07 13:42:00
7:53 AM,23.0,19.9,88,30.14,4.0,SE,9.2,-,N/A,,Partly Cloudy,140,2013-03-07 13:53:00
8:53 AM,26.6,21.2,80,30.06,5.0,SSE,16.1,23.0,N/A,,Haze,150,2013-03-07 14:53:00
9:53 AM,30.0,23.0,75,30.14,8.0,SSE,10.4,19.6,N/A,,Clear,160,2013-03-07 15:53:00
10:53 AM,34.0,24.1,67,30.12,9.0,SSE,11.5,-,N/A,,Clear,160,2013-03-07 16:53:00
11:53 AM,37.9,24.1,57,30.10,10.0,SSE,15.0,21.9,N/A,,Clear,160,2013-03-07 17:53:00
12:53 PM,43.0,25.0,49,30.08,10.0,South,15.0,-,N/A,,Clear,190,2013-03-07 18:53:00
1:53 PM,46.0,26.1,46,30.06,10.0,South,11.5,-,N/A,,Clear,190,2013-03-07 19:53:00
2:53 PM,48.0,26.1,42,30.05,10.0,SSE,9.2,-,N/A,,Clear,160,2013-03-07 20:53:00
3:53 PM,48.0,27.0,44,30.05,10.0,SSE,11.5,-,N/A,,Clear,150,2013-03-07 21:53:00
4:53 PM,50.0,27.0,41,30.05,10.0,South,9.2,-,N/A,,Clear,170,2013-03-07 22:53:00
5:53 PM,46.9,27.0,46,30.07,10.0,SSE,5.8,-,N/A,,Clear,160,2013-03-07 23:53:00
6:53 PM,39.9,26.1,58,30.11,10.0,SE,3.5,-,N/A,,Clear,140,2013-03-08 00:53:00
7:53 PM,33.1,25.0,72,30.12,10.0,Calm,Calm,-,N/A,,Clear,0,2013-03-08 01:53:00
8:53 PM,28.9,23.0,78,30.14,10.0,Calm,Calm,-,N/A,,Clear,0,2013-03-08 02:53:00
9:53 PM,30.0,24.1,79,30.14,10.0,Calm,Calm,-,N/A,,Clear,0,2013-03-08 03:53:00
10:53 PM,26.1,21.9,84,30.15,10.0,Calm,Calm,-,N/A,,Clear,0,2013-03-08 04:53:00
11:53 PM,27.0,23.0,85,30.14,9.0,NW,3.5,-,N/A,,Clear,320,2013-03-08 05:53:00